THOR ABLESTAR DEB, 223

Orbit data source: Space-Track

THOR ABLESTAR DEB, 223 is space debris in LEO originally from a launch on Thu, 29 Jun 1961 UTC launched from the Air Force Eastern Test Range (AFETR). Debris objects in space refer to the collection of defunct objects orbiting the Earth. Examples of debris include non-operational satellites, rocket bodies, and fragments generated from explosions, collisions, or faulty payload assembly.

Loading next visibility...
Identifier
223, 1961-015BK
Orbit
LEO
Country
Flag of USUS
Related business
Manufacturer
Unknown
Mission
Spacecraft
Bus & Motor
Unknown
Mass
Unknown
Launch date (UTC)
1961-06-29 (64 years ago)
Launch vehicle
Unknown
Launch site
Air Force Eastern Test Range (AFETR)
Object type
Payload
Rocket body
Debris
Shape & HBR
Unknown shape, 0.3 m
Radar Cross Section
Medium (>0.1 m² and <1 m²)

Expand to show TLE details & history
Last TLE update: 15 hours ago

TLE from 15 hours ago
0 THOR ABLESTAR DEB
1   223U 61015BK  25312.80240067  .00000029  00000-0  85243-4 0  9997
2   223  66.8881 136.2062 0062729 125.4792 235.2163 13.88982205260266
Epoch: 2025-11-08T19:15Z
TLE epoch observation values (Epoch: 2025-11-08T19:15:27.417Z)
Latitude
Longitude
159.11518°
Altitude
960.637 km
Speed
7.359 km/s
True Right ascension
09h 04m 49s
True Declination
0° 00' 00"
Sunlit
Object was in daylight at epoch
Visualization orbit readout
Latitude
Unknown
Longitude
Unknown
Altitude
Unknown
Speed
Unknown
Apparent Right ascension
Unknown
Apparent Declination
Unknown
Sunlit
N/A
Visualization observer readout
Local Sidereal Time
06:27:19
Azimuth
Unknown
Elevation
Unknown
Doppler factor
Unknown
Orbital elements
Apogee altitude
976.431 km
Perigee altitude
884.738 km
Semi-major axis
7,308.722 km
Eccentricity
0.00627
Inclination
66.8881°
RAAN
136.2062°
Arg. of periapsis
125.4792°
True anomaly
234.62856°
Mean anomaly
235.2163°
Eccentric anomaly
234.92217°
Mean motion
3.47361 °/min
Orbital period
103.64 mins
BSTAR
0.000085243
Loading maneuver chart data...
Computing Atmospheric mass density...

Documentation

Showing up to 5 results
|